TimeEDT,TemperatureF,Dew PointF,Humidity,Sea Level PressureIn,VisibilityMPH,Wind Direction,Wind SpeedMPH,Gust SpeedMPH,PrecipitationIn,Events,Conditions,WindDirDegrees,DateUTC
12:02 AM,54.1,50.0,86,30.22,10.0,Calm,Calm,-,N/A,,Clear,0,2013-05-02 04:02:00
12:47 AM,58.3,52.5,81,30.22,10.0,South,3.5,-,N/A,,Clear,190,2013-05-02 04:47:00
12:53 AM,58.1,52.3,81,30.22,10.0,South,3.5,-,N/A,,Clear,180,2013-05-02 04:53:00
1:14 AM,55.8,50.4,82,30.23,10.0,Calm,Calm,-,N/A,,Clear,0,2013-05-02 05:14:00
1:34 AM,53.6,50.9,91,30.23,10.0,Calm,Calm,-,N/A,,Clear,0,2013-05-02 05:34:00
1:54 AM,53.6,50.9,91,30.24,10.0,North,6.9,-,N/A,,Clear,360,2013-05-02 05:54:00
2:14 AM,55.4,52.2,89,30.23,10.0,Calm,Calm,-,N/A,,Clear,0,2013-05-02 06:14:00
2:34 AM,54.1,51.3,90,30.24,10.0,NE,6.9,-,N/A,,Clear,50,2013-05-02 06:34:00
2:54 AM,50.9,47.3,87,30.24,10.0,ENE,6.9,-,N/A,,Clear,60,2013-05-02 06:54:00
3:14 AM,49.1,46.0,89,30.24,10.0,NE,4.6,-,N/A,,Clear,40,2013-05-02 07:14:00
3:34 AM,49.1,46.0,89,30.24,10.0,NNE,4.6,-,N/A,,Clear,30,2013-05-02 07:34:00
3:54 AM,48.2,45.1,89,30.24,10.0,NNE,5.8,-,N/A,,Clear,30,2013-05-02 07:54:00
4:14 AM,47.8,45.0,90,30.24,10.0,NE,4.6,-,N/A,,Clear,50,2013-05-02 08:14:00
4:34 AM,48.7,45.7,89,30.25,10.0,ENE,3.5,-,N/A,,Clear,60,2013-05-02 08:34:00
4:54 AM,47.3,43.7,87,30.25,10.0,ENE,8.1,-,N/A,,Clear,60,2013-05-02 08:54:00
5:14 AM,44.8,41.2,87,30.24,10.0,NE,5.8,-,N/A,,Clear,50,2013-05-02 09:14:00
5:34 AM,44.2,40.5,87,30.24,10.0,NE,4.6,-,N/A,,Clear,40,2013-05-02 09:34:00
5:54 AM,45.0,41.0,86,30.25,10.0,NNE,4.6,-,N/A,,Clear,20,2013-05-02 09:54:00
6:14 AM,44.8,41.2,87,30.26,10.0,NE,4.6,-,N/A,,Clear,40,2013-05-02 10:14:00
6:34 AM,45.3,41.7,87,30.26,10.0,NNE,3.5,-,N/A,,Clear,30,2013-05-02 10:34:00
6:54 AM,45.7,41.9,87,30.26,10.0,NE,3.5,-,N/A,,Clear,40,2013-05-02 10:54:00
7:14 AM,46.8,42.4,85,30.26,10.0,NE,4.6,-,N/A,,Clear,40,2013-05-02 11:14:00
7:34 AM,48.2,43.0,82,30.27,10.0,NE,5.8,-,N/A,,Clear,50,2013-05-02 11:34:00
7:54 AM,48.4,42.6,80,30.27,10.0,ENE,6.9,-,N/A,,Clear,60,2013-05-02 11:54:00
8:14 AM,49.1,42.3,77,30.28,10.0,NE,6.9,-,N/A,,Clear,40,2013-05-02 12:14:00
8:34 AM,50.0,42.8,76,30.29,10.0,NE,4.6,-,N/A,,Clear,50,2013-05-02 12:34:00
8:54 AM,51.6,43.5,74,30.28,10.0,NE,3.5,-,N/A,,Clear,40,2013-05-02 12:54:00
9:14 AM,53.1,44.1,71,30.28,10.0,NE,4.6,-,N/A,,Clear,50,2013-05-02 13:14:00
9:34 AM,55.0,45.3,70,30.28,10.0,NNE,3.5,-,N/A,,Clear,20,2013-05-02 13:34:00
9:54 AM,57.6,46.0,65,30.28,10.0,Calm,Calm,-,N/A,,Clear,0,2013-05-02 13:54:00
10:14 AM,59.4,46.8,63,30.27,10.0,Calm,Calm,-,N/A,,Clear,0,2013-05-02 14:14:00
10:34 AM,60.8,48.2,63,30.27,10.0,East,5.8,-,N/A,,Clear,80,2013-05-02 14:34:00
10:54 AM,59.5,48.2,66,30.28,10.0,East,6.9,-,N/A,,Clear,100,2013-05-02 14:54:00
11:14 AM,59.7,47.3,63,30.28,10.0,East,5.8,-,N/A,,Clear,100,2013-05-02 15:14:00
11:34 AM,59.9,48.2,65,30.27,10.0,East,4.6,-,N/A,,Clear,80,2013-05-02 15:34:00
11:54 AM,62.1,48.7,62,30.27,10.0,East,8.1,-,N/A,,Clear,90,2013-05-02 15:54:00
12:14 PM,61.5,48.2,62,30.26,10.0,East,5.8,-,N/A,,Clear,100,2013-05-02 16:14:00
12:34 PM,63.9,48.7,58,30.26,10.0,East,6.9,-,N/A,,Clear,100,2013-05-02 16:34:00
12:54 PM,61.0,46.6,59,30.26,10.0,East,8.1,-,N/A,,Clear,90,2013-05-02 16:54:00
1:14 PM,63.0,46.0,54,30.26,10.0,East,5.8,-,N/A,,Clear,90,2013-05-02 17:14:00
1:34 PM,64.2,45.0,50,30.25,10.0,East,6.9,-,N/A,,Clear,90,2013-05-02 17:34:00
1:54 PM,64.6,44.2,48,30.24,10.0,East,8.1,-,N/A,,Clear,90,2013-05-02 17:54:00
2:14 PM,64.2,42.4,45,30.24,10.0,East,8.1,-,N/A,,Clear,90,2013-05-02 18:14:00
2:34 PM,63.0,42.1,46,30.24,10.0,East,6.9,-,N/A,,Clear,80,2013-05-02 18:34:00
2:54 PM,61.2,41.5,48,30.24,10.0,East,8.1,-,N/A,,Clear,100,2013-05-02 18:54:00
3:14 PM,62.1,41.2,46,30.23,10.0,ESE,10.4,-,N/A,,Clear,110,2013-05-02 19:14:00
3:34 PM,62.2,41.9,47,30.22,10.0,ESE,9.2,-,N/A,,Clear,120,2013-05-02 19:34:00
3:54 PM,62.8,42.4,47,30.22,10.0,ESE,10.4,-,N/A,,Clear,120,2013-05-02 19:54:00
4:14 PM,63.7,43.2,47,30.20,10.0,ESE,12.7,-,N/A,,Clear,110,2013-05-02 20:14:00
4:34 PM,63.7,43.7,48,30.20,10.0,ESE,8.1,-,N/A,,Clear,120,2013-05-02 20:34:00
4:54 PM,64.4,43.9,47,30.19,10.0,SE,9.2,18.4,N/A,,Clear,130,2013-05-02 20:54:00
5:13 PM,64.6,44.4,48,30.18,10.0,SE,12.7,20.7,N/A,,Clear,130,2013-05-02 21:13:00
5:34 PM,64.6,44.6,48,30.18,10.0,SE,12.7,21.9,N/A,,Clear,130,2013-05-02 21:34:00
5:54 PM,64.4,45.5,50,30.17,10.0,SE,12.7,19.6,N/A,,Clear,140,2013-05-02 21:54:00
6:13 PM,65.3,45.9,49,30.17,10.0,SE,12.7,19.6,N/A,,Clear,130,2013-05-02 22:13:00
6:34 PM,65.7,46.4,50,30.16,10.0,SE,12.7,21.9,N/A,,Clear,130,2013-05-02 22:34:00
6:54 PM,65.3,46.4,50,30.16,10.0,SE,10.4,18.4,N/A,,Clear,130,2013-05-02 22:54:00
7:13 PM,65.5,46.0,49,30.15,10.0,SE,12.7,19.6,N/A,,Clear,130,2013-05-02 23:13:00
7:34 PM,65.5,45.5,48,30.15,10.0,SE,11.5,17.3,N/A,,Clear,130,2013-05-02 23:34:00
7:54 PM,64.8,45.7,50,30.15,10.0,SE,12.7,20.7,N/A,,Clear,130,2013-05-02 23:54:00
8:14 PM,63.7,45.9,52,30.15,10.0,SE,9.2,19.6,N/A,,Clear,130,2013-05-03 00:14:00
8:34 PM,62.8,45.9,54,30.15,10.0,SE,8.1,-,N/A,,Clear,140,2013-05-03 00:34:00
8:54 PM,61.2,45.5,56,30.15,10.0,SE,9.2,-,N/A,,Clear,130,2013-05-03 00:54:00
9:14 PM,61.2,45.5,56,30.15,10.0,SE,6.9,-,N/A,,Clear,140,2013-05-03 01:14:00
9:34 PM,62.1,45.7,55,30.16,10.0,SE,8.1,-,N/A,,Clear,140,2013-05-03 01:34:00
9:54 PM,62.1,45.9,55,30.16,10.0,SE,8.1,-,N/A,,Clear,140,2013-05-03 01:54:00
10:14 PM,62.6,45.9,54,30.16,10.0,SSE,6.9,-,N/A,,Clear,150,2013-05-03 02:14:00
10:34 PM,63.0,45.9,54,30.16,10.0,SSE,8.1,-,N/A,,Clear,150,2013-05-03 02:34:00
10:54 PM,63.0,45.7,53,30.16,10.0,SSE,6.9,-,N/A,,Clear,150,2013-05-03 02:54:00
11:14 PM,62.6,45.7,54,30.16,10.0,SSE,5.8,-,N/A,,Clear,150,2013-05-03 03:14:00
11:34 PM,61.7,45.5,55,30.16,10.0,SSE,5.8,-,N/A,,Clear,150,2013-05-03 03:34:00
11:54 PM,61.0,45.7,57,30.16,10.0,SSE,4.6,-,N/A,,Clear,150,2013-05-03 03:54:00